This is the latest recevied weather packets stored in our database for station/object W6ORV. If no packets are shown the sender has not sent any weather packets the latest 10 day(s).
| Time | Temp. | Humidity | Pressure | Rain* | Wind** | Luminosity | Snow |
|---|---|---|---|---|---|---|---|
| 1777951338 | 12.22° C | 67% | 4299.3 hPa | 0 mm | - | 0 W/m² | - |
| 1777951036 | 12.78° C | 66% | 4299.2 hPa | 0 mm | - | 0 W/m² | - |
| 1777950732 | 12.78° C | 66% | 4299.1 hPa | 0 mm | - | 0 W/m² | - |
| 1777950429 | 12.78° C | 66% | 4298.8 hPa | 0 mm | - | 0 W/m² | - |
| 1777950125 | 12.78° C | 67% | 4298.8 hPa | 0 mm | - | 0 W/m² | - |
| 1777949821 | 12.78° C | 67% | 4298.9 hPa | 0 mm | - | 0 W/m² | - |
| 1777949519 | 13.33° C | 67% | 4298.7 hPa | 0 mm | - | 0 W/m² | - |
| 1777949217 | 13.33° C | 66% | 4298.9 hPa | 0 mm | - | 0 W/m² | - |
| 1777948913 | 13.33° C | 66% | 4298.8 hPa | 0 mm | - | 2 W/m² | - |
| 1777948611 | 13.33° C | 66% | 4298.8 hPa | 0 mm | - | 4 W/m² | - |
| 1777948308 | 13.33° C | 66% | 4298.8 hPa | 0 mm | - | 8 W/m² | - |
| 1777948006 | 13.89° C | 66% | 4298.7 hPa | 0 mm | - | 15 W/m² | - |
| 1777947703 | 13.89° C | 68% | 4298.8 hPa | 0 mm | - | 22 W/m² | - |
| 1777947399 | 13.89° C | 68% | 4298.8 hPa | 0 mm | - | 28 W/m² | - |
| 1777947096 | 13.89° C | 68% | 4298.6 hPa | 0 mm | - | 37 W/m² | - |
| 1777946792 | 13.89° C | 68% | 4298.6 hPa | 0 mm | - | 45 W/m² | - |
| 1777946488 | 14.44° C | 67% | 4298.7 hPa | 0 mm | - | 47 W/m² | - |
| 1777946185 | 14.44° C | 66% | 4298.6 hPa | 0 mm | - | 49 W/m² | - |
| 1777945882 | 15° C | 65% | 4298.7 hPa | 0 mm | - | 55 W/m² | - |
| 1777945578 | 15° C | 65% | 4298.7 hPa | 0 mm | - | 61 W/m² | - |
| 1777945276 | 15° C | 64% | 4298.6 hPa | 0 mm | - | 67 W/m² | - |
| 1777944973 | 15° C | 64% | 4298.8 hPa | 0 mm | - | 70 W/m² | - |
| 1777944670 | 15° C | 63% | 4298.7 hPa | 0 mm | - | 64 W/m² | - |
| 1777944368 | 15.56° C | 63% | 4298.7 hPa | 0 mm | - | 61 W/m² | - |
| 1777944065 | 15.56° C | 62% | 4298.8 hPa | 0 mm | - | 58 W/m² | - |
* Rain latest hour (hover to see other rain measurements)
** Current wind speed in m/s (hover to see current wind gust speed)